User: anonymous   Login
Location: Wellington
(41.3000°S, 174.7830°E)
Time: 04:40:43
(UTC+12:00)
Language:

Lacrosse 5 rocket - Orbit

View from above orbital plane
View from above orbital plane
View from above satellite
View from above satellite

Ground track
Ground track

The orbit data is extracted from the following two-line orbital elements,

1 28647U 05016B   19141.08153262  .00000594  00000-0  52320-4 0  9996
2 28647  57.0000  39.8119 0128668 151.6125 209.2015 15.05695916   707
Epoch (UTC): 21 May 2019 01:57:24
Eccentricity: 0.0128668
inclination: 57.0000°
perigee height: 460 km
apogee height: 638 km
right ascension of ascending node: 39.8119°
argument of perigee: 151.6125°
revolutions per day: 15.05695916
mean anomaly at epoch: 209.2015°
orbit number at epoch: 70

The dashed part of the orbit path shows where the satellite is in the earth's shadow,  

DLR